Vertical_Velocity
-5 -1 -4 -4 -4 1 -17 1 -4 -20 -2 -30 1 -1 3 3 1 -5 -1 1 0 2 0 -0 0 2 1 2 2 -0 -0 -0 -0 -2 -11 2 0 3 1 0 -3 -1 -2 -15
-2 -2 -0 -4 -5 -1 -5 -1 -2 -4 -13 -4 -2 -4 -2 3 -2 -0 -1 -0 0 -0 1 -4 0 -0 -1 -0 -1 2 -2 -2 -3 -15 -6 -1 -2 0 1 1 -1 -0 3 -11
-5 -3 -4 -3 -2 -4 1 -0 -5 -13 2 3 -1 0 -1 -3 -3 -1 -0 1 -1 -2 -1 -1 -1 -1 -2 -1 1 -0 -3 -0 -4 -6 -2 6 -0 -2 -1 -0 1 -1 -6 -10
7 -1 -0 -4 -4 -4 -9 -3 2 4 -4 -9 -0 1 2 -1 -2 -0 0 -4 1 2 -0 -0 -1 -1 -3 -3 -4 0 -5 -2 1 -2 -0 1 3 3 -1 3 -5 4 -15 3
-0 -5 -1 -7 -1 -1 -10 -4 -4 -2 -2 1 -1 -0 -1 3 -7 4 -4 2 -2 1 -0 -2 -3 1 -0 -2 -3 -0 -1 -5 0 -3 -1 2 1 -2 0 -0 -2 2 3 -13
-4 -2 -2 2 2 -2 -2 -1 1 7 -3 -2 -3 1 -1 -2 2 -6 5 4 2 0 -6 1 -4 -1 -0 -3 1 -0 1 -0 1 -8 1 0 -1 -7 -2 -3 -0 5 4 -20
0 -0 -3 4 2 6 2 2 -3 2 -4 -0 3 0 3 1 0 3 -1 2 2 -9 7 3 0 4 2 4 -2 0 0 1 2 -4 1 4 0 2 4 8 -1 -1 -3 -3
-6 -4 -5 6 5 7 -2 4 2 1 -1 3 -3 -5 1 -3 -3 -0 3 -5 8 -0 4 -5 -4 -4 -4 -1 2 -0 1 0 -0 3 0 -5 -5 -3 3 9 -37 1 2 -2
-6 -2 -1 6 3 5 -0 0 1 -0 1 -3 6 1 4 1 -0 -4 -1 -9 2 3 -0 -2 -1 -0 0 -3 -4 -2 -3 -1 -2 -3 1 2 9 1 2 5 -10 2 6 -1
1 -2 1 2 1 -4 -1 0 2 -2 1 6 -3 -1 4 2 -2 0 0 -6 -13 4 -0 -0 1 -0 3 -3 -0 -2 -4 -3 2 -1 -0 4 8 6 -5 6 1 -6 7 -0
1 -1 -1 0 -2 -2 1 0 1 -0 -0 12 3 -1 -3 -6 1 1 -6 -11 -6 -3 -2 -2 1 -2 3 -3 4 3 3 3 0 -3 1 -7 2 -24 5 -3 -23 5 -6 -12
-1 -1 -0 1 -1 -1 -0 -3 2 0 -3 14 -0 3 2 5 5 17 1 -3 -0 -0 -3 -0 -3 -2 -3 0 -0 -4 -6 5 4 5 2 -2 -4 9 -2 9 13 -15 18 -1
-2 -1 1 1 0 -0 -4 -4 -1 -1 -1 0 -13 -12 -8 0 4 16 -2 0 4 -5 13 1 0 -4 -2 0 2 -1 -4 -1 1 2 -4 -2 -3 -6 7 8 13 3 22 3
-1 -0 1 -0 1 -1 -3 -5 -0 -0 -1 -3 6 5 -6 8 1 1 3 -2 -6 2 3 -2 -1 -3 -2 -0 -2 -0 7 -2 2 -2 -5 -15 -5 3 8 -4 12 1 20 22
-1 2 1 -1 -1 -0 -2 -3 -0 -1 -4 -2 -1 -1 8 1 -1 -1 -2 2 -0 -2 -7 -4 -0 0 -5 1 -4 -1 5 5 4 1 2 12 2 3 9 4 5 5 13 -4
0 2 1 -1 -2 1 -3 -4 1 2 -7 -3 -1 0 -2 -1 -1 -7 -6 -1 -3 -3 1 4 2 14 -9 -2 0 4 5 6 14 6 7 10 10 13 9 7 8 4 6 7
1 2 1 -2 -0 1 -5 -3 2 -0 -1 -2 -2 -0 -7 1 9 -1 -9 -2 -3 -12 2 -3 0 0 -8 -1 0 -4 -1 2 -2 4 -5 -13 -8 1 6 8 7 7 10 6
1 2 0 -1 1 -3 -3 0 4 1 -4 -4 -3 -5 -1 -9 -4 -1 2 -8 -5 -8 2 -3 -2 -4 -2 -2 1 -1 -1 -1 -2 -2 -2 7 4 2 -1 2 1 -7 -4 -1
-1 1 0 -1 0 0 -1 1 3 -6 -11 -5 -3 2 -2 -2 -0 -3 -1 1 -4 3 -3 1 -11 -1 -0 2 1 1 4 8 4 3 6 1 2 1 0 -1 -3 -2 0 0
0 1 0 -1 -0 1 1 1 -4 -12 -4 -4 -2 2 -3 5 1 -2 -1 2 -0 -2 -3 1 -3 2 1 1 3 3 1 2 1 -10 -24 -14 -5 -2 -3 2 7 7 4 -0
1 -1 -2 1 0 1 -1 -4 -6 -0 -5 -1 2 2 1 0 -0 0 4 -2 -1 -3 -6 -7 0 -1 0 3 0 -2 -0 3 3 7 6 5 7 4 4 1 -2 -6 -3 -1
-2 -2 0 0 -3 -2 -12 -1 -4 -5 -0 -2 -0 -1 3 -3 1 3 -4 -1 -6 -3 2 -6 -0 -3 2 1 0 1 2 -1 -2 -2 -4 -1 1 1 -1 1 3 5 6 2
-2 -1 -3 -5 0 -15 -7 -1 -7 -4 -2 1 -5 -8 1 -1 1 1 -4 -5 -4 2 -6 -2 -3 -1 1 0 -2 -2 3 2 1 -2 0 1 2 -2 -3 -1 -2 -1 -0 1
-6 -4 -7 -6 -4 -1 -1 -1 -1 -4 -2 -0 -0 -1 2 0 -2 1 -5 -6 -5 -4 -2 -3 -2 2 2 2 1 -1 -4 -2 -0 1 2 2 0 -1 4 4 3 1 -2 -1
-6 -3 -3 -2 2 -1 1 1 -0 1 2 -1 -2 -1 4 -1 -3 -1 -5 -9 -2 -2 -4 -3 0 1 0 -2 -2 -1 -2 -1 -2 -2 -1 0 -1 -1 -1 -0 -2 -0 -0 -0
-3 -4 -4 1 -1 -3 -1 1 -1 2 0 1 0 0 -4 -2 -1 -5 -1 -4 -3 -7 -2 0 1 -2 -1 -1 -1 -0 -1 -2 -2 2 2 1 -0 0 1 2 1 1 3 1
-2 -1 0 -1 0 0 1 2 -0 0 -1 -1 0 -3 -7 -1 -3 -2 -2 -4 -4 -2 -1 1 3 2 -0 -1 0 2 1 -1 -1 -4 -3 -2 1 2 -0 -1 1 2 2 1
Height
1532 1527 1521 1514 1508 1501 1494 1488 1486 1481 1478 1476 1477 1483 1483 1479 1478 1477 1475 1474 1473 1475 1473 1473 1473 1472 1471 1469 1467 1469 1467 1469 1471 1459 1444 1451 1457 1467 1467 1462 1444 1454 1439 1433
1531 1526 1520 1514 1509 1503 1497 1492 1488 1484 1481 1488 1489 1484 1483 1480 1479 1477 1477 1477 1476 1474 1477 1479 1477 1472 1470 1468 1468 1469 1467 1475 1481 1457 1446 1452 1466 1472 1477 1477 1473 1461 1455 1411
1532 1526 1520 1515 1509 1504 1498 1496 1495 1490 1487 1490 1491 1490 1485 1483 1480 1478 1478 1476 1476 1477 1477 1476 1479 1474 1471 1469 1468 1468 1467 1473 1476 1487 1472 1468 1469 1470 1473 1480 1483 1476 1469 1443
1531 1525 1519 1515 1510 1504 1500 1499 1501 1500 1499 1491 1491 1490 1487 1485 1482 1479 1478 1476 1477 1478 1483 1477 1475 1472 1471 1468 1468 1468 1471 1484 1475 1472 1471 1471 1467 1459 1466 1469 1467 1470 1450 1446
1531 1526 1520 1516 1511 1506 1504 1504 1505 1501 1498 1494 1492 1489 1491 1487 1483 1483 1479 1478 1475 1475 1477 1476 1477 1472 1471 1470 1467 1468 1470 1483 1471 1472 1465 1463 1464 1460 1454 1455 1456 1453 1448 1438
1530 1526 1521 1517 1512 1507 1505 1505 1504 1502 1497 1495 1495 1495 1491 1488 1484 1478 1478 1476 1473 1472 1468 1466 1465 1465 1465 1465 1467 1468 1471 1475 1472 1470 1460 1463 1466 1452 1449 1446 1444 1445 1443 1431
1530 1526 1521 1517 1513 1509 1507 1505 1503 1501 1499 1496 1497 1493 1491 1487 1483 1481 1476 1473 1472 1468 1463 1462 1460 1458 1457 1457 1458 1461 1463 1466 1466 1462 1461 1465 1454 1464 1463 1462 1446 1441 1439 1433
1530 1526 1521 1517 1512 1509 1506 1504 1502 1501 1501 1498 1495 1492 1490 1485 1481 1478 1475 1474 1472 1467 1464 1466 1466 1457 1454 1452 1457 1456 1457 1459 1458 1453 1454 1450 1455 1470 1474 1468 1445 1434 1438 1432
1530 1525 1520 1516 1512 1508 1505 1502 1500 1500 1502 1501 1498 1494 1492 1490 1486 1479 1476 1473 1467 1467 1465 1470 1475 1464 1462 1462 1457 1464 1466 1469 1472 1471 1465 1455 1477 1475 1464 1460 1442 1437 1439 1435
1530 1525 1520 1514 1510 1507 1504 1502 1501 1501 1500 1500 1498 1498 1497 1494 1491 1488 1480 1476 1470 1468 1471 1470 1464 1472 1467 1483 1489 1488 1483 1483 1482 1477 1476 1463 1473 1472 1461 1455 1443 1438 1434 1421
1529 1523 1519 1514 1509 1506 1504 1503 1501 1501 1501 1501 1501 1500 1498 1494 1492 1490 1480 1479 1475 1472 1472 1475 1472 1474 1484 1497 1502 1505 1500 1501 1495 1488 1479 1479 1473 1469 1477 1466 1447 1435 1418 1405
1528 1523 1518 1513 1509 1507 1504 1504 1502 1501 1502 1504 1504 1502 1499 1496 1491 1486 1483 1483 1482 1475 1476 1472 1478 1490 1497 1503 1509 1504 1508 1507 1505 1500 1494 1490 1486 1481 1471 1459 1441 1413 1388 1364
1526 1521 1517 1514 1510 1508 1506 1505 1503 1501 1502 1507 1504 1500 1499 1494 1487 1480 1481 1479 1480 1477 1475 1478 1490 1500 1501 1505 1514 1511 1508 1505 1503 1500 1494 1489 1482 1475 1465 1451 1435 1407 1376 1358
1524 1520 1517 1514 1512 1509 1508 1507 1505 1502 1504 1506 1512 1508 1500 1496 1487 1478 1474 1478 1481 1480 1479 1483 1493 1500 1507 1514 1517 1516 1517 1510 1506 1501 1495 1486 1478 1471 1461 1446 1430 1409 1387 1368
1523 1519 1518 1515 1513 1511 1509 1508 1506 1504 1506 1508 1509 1509 1506 1500 1493 1486 1482 1482 1484 1485 1487 1495 1503 1506 1510 1513 1516 1521 1521 1518 1511 1504 1500 1494 1485 1473 1463 1449 1433 1419 1401 1388
1522 1520 1518 1516 1514 1512 1510 1510 1509 1506 1505 1508 1511 1512 1511 1507 1502 1497 1494 1494 1492 1492 1495 1502 1509 1510 1513 1523 1524 1528 1522 1519 1516 1512 1501 1494 1486 1476 1464 1454 1443 1431 1417 1410
1521 1519 1518 1517 1516 1515 1513 1516 1513 1509 1508 1509 1513 1514 1516 1513 1511 1507 1505 1503 1503 1503 1504 1511 1515 1516 1519 1528 1532 1530 1524 1519 1515 1508 1498 1489 1482 1480 1471 1461 1452 1443 1434 1427
1521 1519 1518 1518 1518 1517 1517 1516 1514 1510 1510 1513 1520 1522 1518 1518 1515 1513 1513 1511 1511 1513 1516 1519 1521 1523 1526 1534 1536 1532 1526 1518 1513 1509 1506 1503 1495 1485 1476 1468 1459 1451 1446 1443
1520 1519 1519 1519 1519 1518 1519 1517 1517 1515 1517 1521 1528 1531 1527 1521 1518 1516 1515 1515 1519 1521 1523 1524 1529 1532 1538 1541 1536 1531 1527 1524 1517 1510 1506 1500 1494 1487 1480 1474 1467 1462 1457 1452
1519 1520 1520 1520 1521 1520 1520 1519 1519 1519 1524 1529 1533 1533 1530 1527 1521 1517 1518 1516 1520 1529 1527 1527 1533 1540 1542 1539 1536 1532 1527 1522 1517 1510 1503 1496 1493 1491 1486 1480 1474 1470 1466 1463
1520 1520 1522 1523 1521 1521 1521 1523 1527 1531 1535 1537 1536 1535 1534 1528 1526 1523 1520 1522 1521 1536 1529 1531 1538 1544 1542 1539 1536 1532 1527 1522 1517 1513 1510 1505 1501 1494 1488 1484 1482 1477 1472 1468
1522 1522 1523 1523 1524 1524 1528 1540 1538 1540 1545 1541 1539 1537 1534 1530 1528 1525 1523 1526 1528 1538 1528 1535 1546 1543 1540 1537 1534 1531 1528 1524 1520 1515 1510 1506 1502 1497 1491 1487 1482 1479 1477 1474
1524 1525 1525 1530 1535 1542 1553 1561 1554 1552 1547 1545 1543 1539 1535 1532 1530 1528 1527 1536 1540 1531 1544 1549 1546 1542 1539 1536 1532 1528 1526 1523 1519 1516 1511 1507 1503 1500 1496 1491 1487 1482 1478 1474
1527 1530 1541 1545 1556 1556 1555 1555 1553 1551 1547 1545 1542 1539 1537 1534 1533 1531 1540 1535 1534 1554 1553 1547 1542 1539 1537 1534 1531 1527 1523 1519 1515 1511 1507 1504 1501 1497 1493 1490 1487 1483 1479 1476
1534 1539 1555 1555 1555 1555 1554 1553 1551 1549 1547 1544 1541 1540 1539 1537 1537 1536 1539 1546 1557 1550 1551 1544 1540 1537 1534 1531 1528 1525 1522 1518 1514 1509 1505 1501 1497 1494 1491 1488 1484 1482 1478 1475
1543 1548 1553 1554 1555 1554 1553 1551 1549 1547 1544 1543 1543 1542 1544 1545 1544 1547 1554 1559 1560 1550 1542 1540 1538 1535 1532 1529 1526 1523 1519 1514 1510 1506 1502 1498 1495 1491 1488 1485 1483 1479 1477 1474
1551 1555 1555 1555 1555 1554 1553 1550 1548 1546 1545 1544 1543 1550 1550 1545 1553 1552 1546 1552 1544 1541 1539 1537 1535 1532 1528 1525 1522 1519 1514 1510 1506 1502 1498 1494 1491 1488 1485 1481 1479 1477 1474 1472